Regional Weather Roundup
Issued by NWS Cleveland, OH

Home | Current Version | Previous Version | Graphics & Text | Print | Product List | Glossary On
Versions: 1 2 3 4 5 6 7 8 9 10 11 12 13 14 15 16 17 18 19 20 21 22 23 24 25 26 27 28 29 30 31 32 33 34 35 36 37 38 39 40 41 42 43 44 45 46 47 48 49 50
000
ASUS41 KCLE 190610
RWRCLE
OHIO REGIONAL WEATHER ROUNDUP
NATIONAL WEATHER SERVICE CLEVELAND, OH
200 AM EDT THU OCT 19 2017

NOTE: "FAIR" INDICATES FEW OR NO CLOUDS BELOW 12,000 FEET WITH NO
SIGNIFICANT WEATHER AND/OR OBSTRUCTIONS TO VISIBILITY.

OHZ001>008-015>018-024>027-034-035-043-044-190700-
   NORTHWEST OHIO

CITY           SKY/WX    TMP DP  RH WIND       PRES   REMARKS
DEFIANCE       CLEAR     50  41  71 S8        30.13F
FINDLAY        CLEAR     48  41  76 S9        30.14F
TOLEDO EXPRESS CLEAR     55  44  66 SW8       30.12S
TOLEDO EXEC    CLEAR     53  42  66 SW7       30.13F
LIMA           CLEAR     52  43  71 S9        30.16S
$$

OHZ009>014-019>023-028>033-038-089-190700-
   NORTHEAST OHIO

CITY           SKY/WX    TMP DP  RH WIND       PRES   REMARKS
CLE-HOPKINS    CLEAR     56  41  57 S9        30.18S
CLE-LAKEFRONT  CLEAR     58  40  51 S13       30.15S
CUY CO. ARPT   NOT AVBL
LORAIN-ELYRIA  CLEAR     50  37  61 S7        30.17S
ASHTABULA      CLEAR     51  40  65 S5        30.18R
AKRON-CANTON   CLEAR     50  38  63 SW6       30.19R
WOOSTER        CLEAR     42  39  89 SW5       30.19R
MANSFIELD      CLEAR     53  43  68 SW9       30.18S
YOUNGSTOWN     PTCLDY    52  39  61 S7        30.18S
$$

OHZ042-051>053-060>062-070>072-077>081-190700-
  SOUTHWEST OHIO

CITY           SKY/WX    TMP DP  RH WIND       PRES   REMARKS
CINC-COVINGTON CLEAR     49  45  86 S7        30.20R
CINC-LUNKEN    CLEAR     44  44 100 NE3       30.22S
HAMILTON       CLEAR     41  40  96 CALM      30.21S
DAYTON         CLEAR     52  45  77 S8        30.20R
WRIGHT-PAT AFB CLEAR     47  44  89 CALM      30.19S
DAYTON GENERAL CLEAR     49  43  80 S6        30.19S
WILMINGTON     CLEAR     50  44  80 SW5       30.21R
$$

OHZ036-037-039>041-045>050-054>059-063>069-073>076-082>088-190700-
  CENTRAL AND SOUTHEAST OHIO

CITY           SKY/WX    TMP DP  RH WIND       PRES   REMARKS
COLUMBUS       CLEAR     48  45  89 CALM      30.20S
OSU AIRPORT    CLEAR     51  44  77 S5        30.20R
BOLTON FIELD   CLEAR     49  43  79 S5        30.20S
RICKENBACK AFB CLEAR     46  43  89 S5        30.20S
NEWARK         CLEAR     42  40  92 CALM      30.20S
MARION         CLEAR     46  40  79 S6        30.19S
LANCASTER      CLEAR     40  39  97 CALM      30.21R
ZANESVILLE     CLEAR     43  40  89 CALM      30.21R
NEW PHILLY     NOT AVBL
$$




USA.gov is the U.S. government's official web portal to all federal, state and local government web resources and services.